TIROS 6 DEB, 29006

Orbit data source: Space-Track

TIROS 6 DEB, 29006 is space debris in LEO originally from a launch on Tue, 18 Sep 1962 UTC launched from the Air Force Eastern Test Range (AFETR). Debris objects in space refer to the collection of defunct objects orbiting the Earth. Examples of debris include non-operational satellites, rocket bodies, and fragments generated from explosions, collisions, or faulty payload assembly.

Loading next visibility...
Identifier
29006, 1962-047F
Orbit
LEO
Country
Flag of USUS
Related business
Manufacturer
Unknown
Mission
Spacecraft
Bus & Motor
Unknown
Mass
Unknown
Launch date (UTC)
1962-09-18 (63 years ago)
Launch vehicle
Unknown
Launch site
Air Force Eastern Test Range (AFETR)
Object type
Payload
Rocket body
Debris
Shape & HBR
Unknown shape, 0.1 m
Radar Cross Section
Small (<0.1 m²)

Expand to show TLE details & history
Last TLE update: 1 day ago

TLE from 1 day ago
0 TIROS 6 DEB
1 29006U 62047F   26071.38499070  .00001091  00000-0  14865-3 0  9990
2 29006  58.3110  28.0461 0006722 170.9146 189.2020 14.85771292687248
Epoch: 2026-03-12T09:14Z
TLE epoch observation values (Epoch: 2026-03-12T09:14:23.196Z)
Latitude
-0.00005°
Longitude
79.41378°
Altitude
617.212 km
Speed
7.549 km/s
True Right ascension
01h 52m 11s
True Declination
0° 00' 00"
Sunlit
Object was in daylight at epoch
Visualization orbit readout
Latitude
Unknown
Longitude
Unknown
Altitude
Unknown
Speed
Unknown
Apparent Right ascension
Unknown
Apparent Declination
Unknown
Sunlit
N/A
Visualization observer readout
Local Sidereal Time
00:51:19
Azimuth
Unknown
Elevation
Unknown
Doppler factor
Unknown
Orbital elements
Apogee altitude
615.326 km
Perigee altitude
605.93 km
Semi-major axis
6,988.765 km
Eccentricity
0.00067
Inclination
58.311°
RAAN
28.0461°
Arg. of periapsis
170.9146°
True anomaly
189.18969°
Mean anomaly
189.202°
Eccentric anomaly
189.19585°
Mean motion
3.71486 °/min
Orbital period
96.91 mins
BSTAR
0.00014865
Loading maneuver chart data...
Computing Atmospheric mass density...
Loading historical data...
Loading historical data...
Loading historical data...
Loading historical data...
Loading historical data...
Loading historical data...
Loading historical data...

Documentation

Showing up to 5 results
|